Content
SEND FEEDBACK

Daily
Averages
Monthly
Summary
United States of America

CHESTERFIELD, MISSOURI


Home > North America > United States > Missouri
Elevation: 559 feet     Latitude: 38 41N     Longitude: 090 31W

WEATHER
 
SELECT A DAY
Number of Records: 205,815;   Date Range: 1/1/95 - 9/29/14
 
SHARE

PRINT THIS DATA

[ ← Previous Day ]
WEATHER ALMANAC - FEBRUARY 9, 2013
[ Next Day → ]
[ °C ]   °F
Weather ElementAverageHighLow
Temperature36.6 °F42.1 °F (2:51 pm)30.9 °F (1:51 am)
Dewpoint26.5 °F34 °F (11:51 pm)23 °F (7:51 am)
Humidity67.4 %82 % (11:51 pm)55 % (2:51 pm)
Barometer30.25 in30.41 in (2:51 am)30.05 in (10:51 pm)
Wind Speed12.5 mph16.1 mph (2:51 pm)
Wind Gust21.9 mph (8:51 pm)
Weather ElementAverage
Visibility9.8 mi
Wind DirectionSSE (141.9 °)

Weather ElementTotal
Precipitation0.09 in
Heating Degree Days28.5 (Base 65)
Averaged from 26 records on February 9, 2013
WEATHER CONDITIONS BREAKOUT
WIND DIRECTION BREAKOUT
WEATHER BY HOUR - FEBRUARY 9, 2013
[ °C ]   °F
Local TimeTemperatureDewpointHumidityBarometerVisibilityWind DirectionWind SpeedGust SpeedPrecipitationEventsConditions
1:51 AM30.9 °F24.1 °F76 %30.38 in9.0 miEast (100°)10.4 mphOvercast
2:51 AM30.9 °F24.1 °F76 %30.41 in10.0 miSSE (150°)5.8 mphOvercast
3:51 AM30.9 °F24.1 °F76 %30.40 in10.0 miSSE (150°)6.9 mphOvercast
4:51 AM30.9 °F24.1 °F76 %30.37 in10.0 miSE (130°)15.0 mphOvercast
5:51 AM30.9 °F24.1 °F76 %30.36 in10.0 miESE (120°)11.5 mphOvercast
6:51 AM30.9 °F24.1 °F76 %30.36 in10.0 miSE (130°)12.7 mphOvercast
7:51 AM30.9 °F23.0 °F72 %30.39 in10.0 miSouth (180°)11.5 mphOvercast
8:51 AM32.0 °F24.1 °F73 %30.38 in10.0 miSE (130°)11.5 mphOvercast
9:35 AM32.0 °F24.8 °F75 %30.33 in10.0 miESE (110°)13.8 mphOvercast
9:51 AM32.0 °F24.1 °F73 %30.37 in10.0 miSSE (150°)12.7 mphOvercast
10:51 AM34.0 °F25.0 °F70 %30.36 in10.0 miSE (140°)12.7 mphOvercast
11:51 AM37.0 °F26.1 °F65 %30.34 in10.0 miSSE (150°)13.8 mphMostly Cloudy
12:07 PM37.4 °F24.8 °F60 %30.29 in10.0 miSSE (150°)10.4 mphMostly Cloudy
12:51 PM37.9 °F26.1 °F62 %30.27 in10.0 miSSE (150°)13.8 mphOvercast
1:51 PM41.0 °F27.0 °F57 %30.24 in10.0 miSSE (150°)12.7 mphMostly Cloudy
2:51 PM42.1 °F27.0 °F55 %30.19 in10.0 miSE (130°)16.1 mphMostly Cloudy
3:51 PM42.1 °F28.0 °F58 %30.17 in10.0 miESE (120°)16.1 mphMostly Cloudy
4:51 PM41.0 °F27.0 °F57 %30.15 in10.0 miSE (140°)15.0 mphMostly Cloudy
5:51 PM41.0 °F27.0 °F57 %30.14 in10.0 miSE (140°)10.4 mphOvercast
6:51 PM39.2 °F28.4 °F65 %30.12 in10.0 miSouth (170°)6.9 mphOvercast
7:51 PM41.0 °F28.0 °F60 %30.13 in10.0 miSSE (150°)12.7 mphOvercast
8:51 PM42.1 °F28.0 °F58 %30.11 in10.0 miSSE (160°)16.1 mph21.9 mphOvercast
9:28 PM42.1 °F28.0 °F58 %30.11 in10.0 miSSE (160°)16.1 mph21.9 mphRainLight Rain
9:51 PM41.0 °F30.9 °F67 %30.07 in10.0 miSSE (150°)15.0 mph0.00 inRainLight Rain
10:51 PM41.0 °F33.1 °F73 %30.05 in9.0 miSE (140°)15.0 mph20.7 mph0.02 inRainLight Rain
11:51 PM39.0 °F34.0 °F82 %30.06 in7.0 miSE (140°)11.5 mph0.07 inRainLight Rain
Hourly data recorded from KSTL, located miles away from Chesterfield, Missouri







STORIES FROM OUR PARTNERS